TimeCDT,TemperatureF,Dew PointF,Humidity,Sea Level PressureIn,VisibilityMPH,Wind Direction,Wind SpeedMPH,Gust SpeedMPH,PrecipitationIn,Events,Conditions,WindDirDegrees,DateUTC
12:53 AM,73.0,71.1,93,29.80,10.0,SW,6.9,-,N/A,,Clear,220,2013-07-10 05:53:00
1:53 AM,73.0,71.1,93,29.80,10.0,WSW,5.8,-,N/A,,Clear,240,2013-07-10 06:53:00
2:53 AM,73.0,70.0,90,29.80,10.0,WSW,9.2,-,N/A,,Clear,240,2013-07-10 07:53:00
3:53 AM,73.0,69.1,87,29.80,10.0,WSW,8.1,-,N/A,,Clear,250,2013-07-10 08:53:00
4:53 AM,72.0,69.1,91,29.81,10.0,West,8.1,-,N/A,,Clear,260,2013-07-10 09:53:00
5:51 AM,71.6,69.8,94,29.84,10.0,West,6.9,-,N/A,,Mostly Cloudy,270,2013-07-10 10:51:00
5:53 AM,71.1,69.1,93,29.83,10.0,West,6.9,-,N/A,,Mostly Cloudy,270,2013-07-10 10:53:00
6:05 AM,71.6,69.8,94,29.85,10.0,West,6.9,-,N/A,,Scattered Clouds,260,2013-07-10 11:05:00
6:45 AM,73.4,69.8,88,29.85,10.0,WNW,6.9,-,N/A,,Overcast,290,2013-07-10 11:45:00
6:53 AM,73.0,70.0,90,29.84,10.0,NW,8.1,-,N/A,,Overcast,310,2013-07-10 11:53:00
7:18 AM,71.6,62.6,73,29.85,10.0,NNW,15.0,23.0,N/A,,Scattered Clouds,330,2013-07-10 12:18:00
7:53 AM,72.0,61.0,68,29.86,10.0,NNW,6.9,-,N/A,,Partly Cloudy,330,2013-07-10 12:53:00
8:53 AM,73.0,59.0,61,29.88,10.0,NW,15.0,23.0,N/A,,Clear,310,2013-07-10 13:53:00
9:53 AM,72.0,57.9,61,29.89,-9999.0,NW,13.8,23.0,N/A,,Partly Cloudy,310,2013-07-10 14:53:00
10:53 AM,73.9,60.1,62,29.90,10.0,NW,11.5,19.6,N/A,,Partly Cloudy,320,2013-07-10 15:53:00
11:53 AM,73.9,59.0,59,29.91,10.0,NNW,12.7,20.7,N/A,,Mostly Cloudy,340,2013-07-10 16:53:00
12:53 PM,75.9,59.0,56,29.92,10.0,NW,10.4,18.4,N/A,,Partly Cloudy,310,2013-07-10 17:53:00
1:53 PM,75.0,57.9,55,29.93,10.0,NNW,8.1,16.1,N/A,,Mostly Cloudy,340,2013-07-10 18:53:00
2:53 PM,73.9,57.0,55,29.93,10.0,NW,8.1,-,N/A,,Mostly Cloudy,320,2013-07-10 19:53:00
3:53 PM,75.9,57.0,52,29.93,10.0,WNW,9.2,17.3,N/A,,Mostly Cloudy,300,2013-07-10 20:53:00
4:53 PM,73.9,57.0,55,29.93,10.0,NW,8.1,-,N/A,,Overcast,320,2013-07-10 21:53:00
5:53 PM,73.9,57.9,57,29.93,10.0,NW,6.9,-,N/A,,Mostly Cloudy,320,2013-07-10 22:53:00
6:53 PM,73.9,57.0,55,29.93,10.0,NW,5.8,-,N/A,,Partly Cloudy,320,2013-07-10 23:53:00
7:53 PM,70.0,57.0,63,29.94,10.0,NNW,4.6,-,N/A,,Clear,330,2013-07-11 00:53:00
8:53 PM,68.0,55.9,65,29.96,10.0,Calm,Calm,-,N/A,,Partly Cloudy,0,2013-07-11 01:53:00
9:53 PM,64.0,57.0,78,29.99,10.0,NNW,3.5,-,N/A,,Clear,330,2013-07-11 02:53:00
10:53 PM,63.0,55.9,78,30.00,10.0,NNW,5.8,-,N/A,,Clear,330,2013-07-11 03:53:00
11:53 PM,61.0,55.9,83,30.02,10.0,NNW,4.6,-,N/A,,Clear,330,2013-07-11 04:53:00